Year,Month,Day,Hour,Minute,Value (Times are PST for temperature in C)
2005,07,04,00,00,17.30
2005,07,04,00,01,17.20
2005,07,04,00,02,17.20
2005,07,04,00,03,17.10
2005,07,04,00,04,17.10
2005,07,04,00,05,17.10
2005,07,04,00,06,17.10
2005,07,04,00,07,17.10
2005,07,04,00,08,17.00
2005,07,04,00,09,17.00
2005,07,04,00,10,17.00
2005,07,04,00,11,17.00
2005,07,04,00,12,17.00
2005,07,04,00,13,17.00
2005,07,04,00,14,17.00
2005,07,04,00,15,17.00
2005,07,04,00,16,17.00
2005,07,04,00,17,17.00
2005,07,04,00,18,17.00
2005,07,04,00,19,17.00
2005,07,04,00,20,16.90
2005,07,04,00,21,16.90
2005,07,04,00,22,16.90
2005,07,04,00,23,16.90
2005,07,04,00,24,16.80
2005,07,04,00,25,16.80
2005,07,04,00,26,16.80
2005,07,04,00,27,16.70
2005,07,04,00,28,16.70
2005,07,04,00,29,16.70
2005,07,04,00,30,16.70
2005,07,04,00,31,16.70
2005,07,04,00,32,16.70
2005,07,04,00,33,16.70
2005,07,04,00,34,16.70
2005,07,04,00,35,16.70
2005,07,04,00,36,16.70
2005,07,04,00,37,16.70
2005,07,04,00,38,16.70
2005,07,04,00,39,16.70
2005,07,04,00,40,16.70
2005,07,04,00,41,16.70
2005,07,04,00,42,16.70
2005,07,04,00,43,16.70
2005,07,04,00,44,16.70
2005,07,04,00,45,16.70
2005,07,04,00,46,16.70
2005,07,04,00,47,16.70
2005,07,04,00,48,16.70
2005,07,04,00,49,16.70
2005,07,04,00,50,16.70
2005,07,04,00,51,16.70
2005,07,04,00,52,16.70
2005,07,04,00,53,16.70
2005,07,04,00,54,16.70
2005,07,04,00,55,16.70
2005,07,04,00,56,16.70
2005,07,04,00,57,16.70
2005,07,04,00,58,16.70
2005,07,04,00,59,16.70
2005,07,04,01,00,16.70
2005,07,04,01,01,16.60
2005,07,04,01,02,16.60
2005,07,04,01,03,16.60
2005,07,04,01,04,16.50
2005,07,04,01,05,16.40
2005,07,04,01,06,16.40
2005,07,04,01,07,16.30
2005,07,04,01,08,16.30
2005,07,04,01,09,16.30
2005,07,04,01,10,16.20
2005,07,04,01,11,16.20
2005,07,04,01,12,16.20
2005,07,04,01,13,16.20
2005,07,04,01,14,16.20
2005,07,04,01,15,16.10
2005,07,04,01,16,16.10
2005,07,04,01,17,16.10
2005,07,04,01,18,16.00
2005,07,04,01,19,15.90
2005,07,04,01,20,15.90
2005,07,04,01,21,15.80
2005,07,04,01,22,15.80
2005,07,04,01,23,15.80
2005,07,04,01,24,15.80
2005,07,04,01,25,15.80
2005,07,04,01,26,15.80
2005,07,04,01,27,15.80
2005,07,04,01,28,15.80
2005,07,04,01,29,15.80
2005,07,04,01,30,15.80
2005,07,04,01,31,15.80
2005,07,04,01,32,15.80
2005,07,04,01,33,15.80
2005,07,04,01,34,15.80
2005,07,04,01,35,15.80
2005,07,04,01,36,15.80
2005,07,04,01,37,15.80
2005,07,04,01,38,15.90
2005,07,04,01,39,15.90
2005,07,04,01,40,15.90
2005,07,04,01,41,15.90
2005,07,04,01,42,15.90
2005,07,04,01,43,16.10
2005,07,04,01,44,16.10
2005,07,04,01,45,16.10
2005,07,04,01,46,16.10
2005,07,04,01,47,16.10
2005,07,04,01,48,16.10
2005,07,04,01,49,16.10
2005,07,04,01,50,16.10
2005,07,04,01,51,16.10
2005,07,04,01,52,16.10
2005,07,04,01,53,16.10
2005,07,04,01,54,16.10
2005,07,04,01,55,16.10
2005,07,04,01,56,16.10
2005,07,04,01,57,16.10
2005,07,04,01,58,16.10
2005,07,04,01,59,16.10
2005,07,04,02,00,16.00
2005,07,04,02,01,15.90
2005,07,04,02,02,15.90
2005,07,04,02,03,15.90
2005,07,04,02,04,15.90
2005,07,04,02,05,15.80
2005,07,04,02,06,15.80
2005,07,04,02,07,15.80
2005,07,04,02,08,15.80
2005,07,04,02,09,15.80
2005,07,04,02,10,15.80
2005,07,04,02,11,15.80
2005,07,04,02,12,15.70
2005,07,04,02,13,15.70
2005,07,04,02,14,15.70
2005,07,04,02,15,15.70
2005,07,04,02,16,15.70
2005,07,04,02,17,15.60
2005,07,04,02,18,15.60
2005,07,04,02,19,15.60
2005,07,04,02,20,15.60
2005,07,04,02,21,15.60
2005,07,04,02,22,15.60
2005,07,04,02,23,15.60
2005,07,04,02,24,15.60
2005,07,04,02,25,15.60
2005,07,04,02,26,15.60
2005,07,04,02,27,15.60
2005,07,04,02,28,15.50
2005,07,04,02,29,15.50
2005,07,04,02,30,15.50
2005,07,04,02,31,15.50
2005,07,04,02,32,15.50
2005,07,04,02,33,15.50
2005,07,04,02,34,15.50
2005,07,04,02,35,15.50
2005,07,04,02,36,15.50
2005,07,04,02,37,15.50
2005,07,04,02,38,15.50
2005,07,04,02,39,15.50
2005,07,04,02,40,15.50
2005,07,04,02,41,15.50
2005,07,04,02,42,15.50
2005,07,04,02,43,15.40
2005,07,04,02,44,15.40
2005,07,04,02,45,15.30
2005,07,04,02,46,15.30
2005,07,04,02,47,15.30
2005,07,04,02,48,15.30
2005,07,04,02,49,15.20
2005,07,04,02,50,15.20
2005,07,04,02,51,15.20
2005,07,04,02,52,15.20
2005,07,04,02,53,15.10
2005,07,04,02,54,15.00
2005,07,04,02,55,15.00
2005,07,04,02,56,14.90
2005,07,04,02,57,14.90
2005,07,04,02,58,14.90
2005,07,04,02,59,14.90
2005,07,04,03,00,14.90
2005,07,04,03,01,14.90
2005,07,04,03,02,14.90
2005,07,04,03,03,15.00
2005,07,04,03,04,15.00
2005,07,04,03,05,15.00
2005,07,04,03,06,15.00
2005,07,04,03,07,15.00
2005,07,04,03,08,15.00
2005,07,04,03,09,15.00
2005,07,04,03,10,15.00
2005,07,04,03,11,15.00
2005,07,04,03,12,15.00
2005,07,04,03,13,15.00
2005,07,04,03,14,15.00
2005,07,04,03,15,15.00
2005,07,04,03,16,15.00
2005,07,04,03,17,15.00
2005,07,04,03,18,15.00
2005,07,04,03,19,15.00
2005,07,04,03,20,15.00
2005,07,04,03,21,15.00
2005,07,04,03,22,15.00
2005,07,04,03,23,15.00
2005,07,04,03,24,15.00
2005,07,04,03,25,15.00
2005,07,04,03,26,15.00
2005,07,04,03,27,14.90
2005,07,04,03,28,14.90
2005,07,04,03,29,14.90
2005,07,04,03,30,14.90
2005,07,04,03,31,14.90
2005,07,04,03,32,14.90
2005,07,04,03,33,14.90
2005,07,04,03,34,14.90
2005,07,04,03,35,14.90
2005,07,04,03,36,14.90
2005,07,04,03,37,14.90
2005,07,04,03,38,14.90
2005,07,04,03,39,14.90
2005,07,04,03,40,14.90
2005,07,04,03,41,14.90
2005,07,04,03,42,14.90
2005,07,04,03,43,14.90
2005,07,04,03,44,14.90
2005,07,04,03,45,14.90
2005,07,04,03,46,14.90
2005,07,04,03,47,15.00
2005,07,04,03,48,15.00
2005,07,04,03,49,15.00
2005,07,04,03,50,15.00
2005,07,04,03,51,15.00
2005,07,04,03,52,15.00
2005,07,04,03,53,15.00
2005,07,04,03,54,15.00
2005,07,04,03,55,15.00
2005,07,04,03,56,14.90
2005,07,04,03,57,14.90
2005,07,04,03,58,14.90
2005,07,04,03,59,14.90
2005,07,04,04,00,14.90
2005,07,04,04,01,14.90
2005,07,04,04,02,14.90
2005,07,04,04,03,14.90
2005,07,04,04,04,14.90
2005,07,04,04,05,14.90
2005,07,04,04,06,14.90
2005,07,04,04,07,14.90
2005,07,04,04,08,14.90
2005,07,04,04,09,14.90
2005,07,04,04,10,14.90
2005,07,04,04,11,14.80
2005,07,04,04,12,14.80
2005,07,04,04,13,14.80
2005,07,04,04,14,14.80
2005,07,04,04,15,14.80
2005,07,04,04,16,14.80
2005,07,04,04,17,14.80
2005,07,04,04,18,14.80
2005,07,04,04,19,14.80
2005,07,04,04,20,14.80
2005,07,04,04,21,14.80
2005,07,04,04,22,14.80
2005,07,04,04,23,14.80
2005,07,04,04,24,14.80
2005,07,04,04,25,14.80
2005,07,04,04,26,14.80
2005,07,04,04,27,14.80
2005,07,04,04,28,14.80
2005,07,04,04,29,14.80
2005,07,04,04,30,14.80
2005,07,04,04,31,14.80
2005,07,04,04,32,14.80
2005,07,04,04,33,14.70
2005,07,04,04,34,14.70
2005,07,04,04,35,14.70
2005,07,04,04,36,14.70
2005,07,04,04,37,14.70
2005,07,04,04,38,14.70
2005,07,04,04,39,14.70
2005,07,04,04,40,14.70
2005,07,04,04,41,14.70
2005,07,04,04,42,14.70
2005,07,04,04,43,14.70
2005,07,04,04,44,14.70
2005,07,04,04,45,14.70
2005,07,04,04,46,14.70
2005,07,04,04,47,14.70
2005,07,04,04,48,14.70
2005,07,04,04,49,14.70
2005,07,04,04,50,14.70
2005,07,04,04,51,14.70
2005,07,04,04,52,14.70
2005,07,04,04,53,14.70
2005,07,04,04,54,14.70
2005,07,04,04,55,14.70
2005,07,04,04,56,14.70
2005,07,04,04,57,14.70
2005,07,04,04,58,14.70
2005,07,04,04,59,14.70
2005,07,04,05,00,14.70
2005,07,04,05,01,14.70
2005,07,04,05,02,14.70
2005,07,04,05,03,14.70
2005,07,04,05,04,14.70
2005,07,04,05,05,14.70
2005,07,04,05,06,14.70
2005,07,04,05,07,14.70
2005,07,04,05,08,14.70
2005,07,04,05,09,14.70
2005,07,04,05,10,14.70
2005,07,04,05,11,14.70
2005,07,04,05,12,14.70
2005,07,04,05,13,14.70
2005,07,04,05,14,14.70
2005,07,04,05,15,14.70
2005,07,04,05,16,14.70
2005,07,04,05,17,14.70
2005,07,04,05,18,14.70
2005,07,04,05,19,14.70
2005,07,04,05,20,14.70
2005,07,04,05,21,14.70
2005,07,04,05,22,14.70
2005,07,04,05,23,14.70
2005,07,04,05,24,14.70
2005,07,04,05,25,14.70
2005,07,04,05,26,14.70
2005,07,04,05,27,14.70
2005,07,04,05,28,14.80
2005,07,04,05,29,14.80
2005,07,04,05,30,14.80
2005,07,04,05,31,14.80
2005,07,04,05,32,14.80
2005,07,04,05,33,14.80
2005,07,04,05,34,14.80
2005,07,04,05,35,14.80
2005,07,04,05,36,14.80
2005,07,04,05,37,14.80
2005,07,04,05,38,14.80
2005,07,04,05,39,14.80
2005,07,04,05,40,14.80
2005,07,04,05,41,14.80
2005,07,04,05,42,14.80
2005,07,04,05,43,14.80
2005,07,04,05,44,14.80
2005,07,04,05,45,14.80
2005,07,04,05,46,14.70
2005,07,04,05,47,14.70
2005,07,04,05,48,14.70
2005,07,04,05,49,14.70
2005,07,04,05,50,14.70
2005,07,04,05,51,14.70
2005,07,04,05,52,14.70
2005,07,04,05,53,14.70
2005,07,04,05,54,14.70
2005,07,04,05,55,14.70
2005,07,04,05,56,14.70
2005,07,04,05,57,14.70
2005,07,04,05,58,14.70
2005,07,04,05,59,14.70
2005,07,04,06,00,14.70
2005,07,04,06,01,14.70
2005,07,04,06,02,14.70
2005,07,04,06,03,14.70
2005,07,04,06,04,14.70
2005,07,04,06,05,14.70
2005,07,04,06,06,14.70
2005,07,04,06,07,14.70
2005,07,04,06,08,14.70
2005,07,04,06,09,14.70
2005,07,04,06,10,14.70
2005,07,04,06,11,14.70
2005,07,04,06,12,14.70
2005,07,04,06,13,14.70
2005,07,04,06,14,14.70
2005,07,04,06,15,14.70
2005,07,04,06,16,14.70
2005,07,04,06,17,14.80
2005,07,04,06,18,14.80
2005,07,04,06,19,14.80
2005,07,04,06,20,14.80
2005,07,04,06,21,14.80
2005,07,04,06,22,14.80
2005,07,04,06,23,14.80
2005,07,04,06,24,14.80
2005,07,04,06,25,14.80
2005,07,04,06,26,14.80
2005,07,04,06,27,14.80
2005,07,04,06,28,14.80
2005,07,04,06,29,14.90
2005,07,04,06,30,14.90
2005,07,04,06,31,14.90
2005,07,04,06,32,14.90
2005,07,04,06,33,14.90
2005,07,04,06,34,14.90
2005,07,04,06,35,15.00
2005,07,04,06,36,15.00
2005,07,04,06,37,15.00
2005,07,04,06,38,15.00
2005,07,04,06,39,15.00
2005,07,04,06,40,15.00
2005,07,04,06,41,15.00
2005,07,04,06,42,15.00
2005,07,04,06,43,15.00
2005,07,04,06,44,15.00
2005,07,04,06,45,15.00
2005,07,04,06,46,15.10
2005,07,04,06,47,15.10
2005,07,04,06,48,15.10
2005,07,04,06,49,15.10
2005,07,04,06,50,15.10
2005,07,04,06,51,15.20
2005,07,04,06,52,15.20
2005,07,04,06,53,15.20
2005,07,04,06,54,15.20
2005,07,04,06,55,15.20
2005,07,04,06,56,15.20
2005,07,04,06,57,15.30
2005,07,04,06,58,15.30
2005,07,04,06,59,15.30
2005,07,04,07,00,15.30
2005,07,04,07,01,15.40
2005,07,04,07,02,15.40
2005,07,04,07,03,15.50
2005,07,04,07,04,15.60
2005,07,04,07,05,15.60
2005,07,04,07,06,15.70
2005,07,04,07,07,15.80
2005,07,04,07,08,15.80
2005,07,04,07,09,15.80
2005,07,04,07,10,15.80
2005,07,04,07,11,15.80
2005,07,04,07,12,15.80
2005,07,04,07,13,15.80
2005,07,04,07,14,15.90
2005,07,04,07,15,15.90
2005,07,04,07,16,16.00
2005,07,04,07,17,16.10
2005,07,04,07,18,16.10
2005,07,04,07,19,16.10
2005,07,04,07,20,16.20
2005,07,04,07,21,16.20
2005,07,04,07,22,16.30
2005,07,04,07,23,16.30
2005,07,04,07,24,16.30
2005,07,04,07,25,16.30
2005,07,04,07,26,16.40
2005,07,04,07,27,16.40
2005,07,04,07,28,16.50
2005,07,04,07,29,16.60
2005,07,04,07,30,16.70
2005,07,04,07,31,16.70
2005,07,04,07,32,16.80
2005,07,04,07,33,16.80
2005,07,04,07,34,16.80
2005,07,04,07,35,16.80
2005,07,04,07,36,16.80
2005,07,04,07,37,16.80
2005,07,04,07,38,16.80
2005,07,04,07,39,16.80
2005,07,04,07,40,16.80
2005,07,04,07,41,16.80
2005,07,04,07,42,16.90
2005,07,04,07,43,16.90
2005,07,04,07,44,16.90
2005,07,04,07,45,16.90
2005,07,04,07,46,17.00
2005,07,04,07,47,17.00
2005,07,04,07,48,17.00
2005,07,04,07,49,17.10
2005,07,04,07,50,17.00
2005,07,04,07,51,17.00
2005,07,04,07,52,17.00
2005,07,04,07,53,16.90
2005,07,04,07,54,16.90
2005,07,04,07,55,16.90
2005,07,04,07,56,16.80
2005,07,04,07,57,16.90
2005,07,04,07,58,16.90
2005,07,04,07,59,16.90
2005,07,04,08,00,16.90
2005,07,04,08,01,16.90
2005,07,04,08,02,16.90
2005,07,04,08,03,16.90
2005,07,04,08,04,16.90
2005,07,04,08,05,16.80
2005,07,04,08,06,16.70
2005,07,04,08,07,16.60
2005,07,04,08,08,16.40
2005,07,04,08,09,16.30
2005,07,04,08,10,16.20
2005,07,04,08,11,16.10
2005,07,04,08,12,16.10
2005,07,04,08,13,16.00
2005,07,04,08,14,15.90
2005,07,04,08,15,15.90
2005,07,04,08,16,16.10
2005,07,04,08,17,16.10
2005,07,04,08,18,16.10
2005,07,04,08,19,16.10
2005,07,04,08,20,16.10
2005,07,04,08,21,16.10
2005,07,04,08,22,16.20
2005,07,04,08,23,16.20
2005,07,04,08,24,16.30
2005,07,04,08,25,16.30
2005,07,04,08,26,16.30
2005,07,04,08,27,16.30
2005,07,04,08,28,16.40
2005,07,04,08,29,16.40
2005,07,04,08,30,16.40
2005,07,04,08,31,16.40
2005,07,04,08,32,16.60
2005,07,04,08,33,16.60
2005,07,04,08,34,16.50
2005,07,04,08,35,16.40
2005,07,04,08,36,16.40
2005,07,04,08,37,16.40
2005,07,04,08,38,16.40
2005,07,04,08,39,16.50
2005,07,04,08,40,16.60
2005,07,04,08,41,16.60
2005,07,04,08,42,16.70
2005,07,04,08,43,16.70
2005,07,04,08,44,16.60
2005,07,04,08,45,16.60
2005,07,04,08,46,16.50
2005,07,04,08,47,16.40
2005,07,04,08,48,16.30
2005,07,04,08,49,16.30
2005,07,04,08,50,16.30
2005,07,04,08,51,16.30
2005,07,04,08,52,16.30
2005,07,04,08,53,16.40
2005,07,04,08,54,16.40
2005,07,04,08,55,16.40
2005,07,04,08,56,16.40
2005,07,04,08,57,16.40
2005,07,04,08,58,16.40
2005,07,04,08,59,16.40
2005,07,04,09,00,16.30
2005,07,04,09,01,16.30
2005,07,04,09,02,16.30
2005,07,04,09,03,16.30
2005,07,04,09,04,16.30
2005,07,04,09,05,16.30
2005,07,04,09,06,16.40
2005,07,04,09,07,16.40
2005,07,04,09,08,16.40
2005,07,04,09,09,16.50
2005,07,04,09,10,16.60
2005,07,04,09,11,16.60
2005,07,04,09,12,16.60
2005,07,04,09,13,16.60
2005,07,04,09,14,16.70
2005,07,04,09,15,16.60
2005,07,04,09,16,16.60
2005,07,04,09,17,16.60
2005,07,04,09,18,16.60
2005,07,04,09,19,16.70
2005,07,04,09,20,16.70
2005,07,04,09,21,16.70
2005,07,04,09,22,16.70
2005,07,04,09,23,16.80
2005,07,04,09,24,16.80
2005,07,04,09,25,16.80
2005,07,04,09,26,16.90
2005,07,04,09,27,16.90
2005,07,04,09,28,17.00
2005,07,04,09,29,17.00
2005,07,04,09,30,17.00
2005,07,04,09,31,17.10
2005,07,04,09,32,17.10
2005,07,04,09,33,17.20
2005,07,04,09,34,17.20
2005,07,04,09,35,17.20
2005,07,04,09,36,17.20
2005,07,04,09,37,17.30
2005,07,04,09,38,17.30
2005,07,04,09,39,17.40
2005,07,04,09,40,17.50
2005,07,04,09,41,17.60
2005,07,04,09,42,17.70
2005,07,04,09,43,17.80
2005,07,04,09,44,17.90
2005,07,04,09,45,17.90
2005,07,04,09,46,18.10
2005,07,04,09,47,18.10
2005,07,04,09,48,18.20
2005,07,04,09,49,18.20
2005,07,04,09,50,18.20
2005,07,04,09,51,18.20
2005,07,04,09,52,18.20
2005,07,04,09,53,18.20
2005,07,04,09,54,18.10
2005,07,04,09,55,17.90
2005,07,04,09,56,17.80
2005,07,04,09,57,17.80
2005,07,04,09,58,17.80
2005,07,04,09,59,17.80
2005,07,04,10,00,17.90
2005,07,04,10,01,17.90
2005,07,04,10,02,17.90
2005,07,04,10,03,17.90
2005,07,04,10,04,17.90
2005,07,04,10,05,17.90
2005,07,04,10,06,17.90
2005,07,04,10,07,17.90
2005,07,04,10,08,17.90
2005,07,04,10,09,18.10
2005,07,04,10,10,18.10
2005,07,04,10,11,18.10
2005,07,04,10,12,18.20
2005,07,04,10,13,18.20
2005,07,04,10,14,18.20
2005,07,04,10,15,18.20
2005,07,04,10,16,18.20
2005,07,04,10,17,18.20
2005,07,04,10,18,18.10
2005,07,04,10,19,18.10
2005,07,04,10,20,18.00
2005,07,04,10,21,18.00
2005,07,04,10,22,18.10
2005,07,04,10,23,18.10
2005,07,04,10,24,18.10
2005,07,04,10,25,18.10
2005,07,04,10,26,18.10
2005,07,04,10,27,18.10
2005,07,04,10,28,18.10
2005,07,04,10,29,18.10
2005,07,04,10,30,18.10
2005,07,04,10,31,18.00
2005,07,04,10,32,17.90
2005,07,04,10,33,17.90
2005,07,04,10,34,17.90
2005,07,04,10,35,17.80
2005,07,04,10,36,17.80
2005,07,04,10,37,17.80
2005,07,04,10,38,17.70
2005,07,04,10,39,17.70
2005,07,04,10,40,17.80
2005,07,04,10,41,17.80
2005,07,04,10,42,17.80
2005,07,04,10,43,17.90
2005,07,04,10,44,17.90
2005,07,04,10,45,17.80
2005,07,04,10,46,17.80
2005,07,04,10,47,17.70
2005,07,04,10,48,17.70
2005,07,04,10,49,17.70
2005,07,04,10,50,17.80
2005,07,04,10,51,17.70
2005,07,04,10,52,17.70
2005,07,04,10,53,17.70
2005,07,04,10,54,17.70
2005,07,04,10,55,17.70
2005,07,04,10,56,17.70
2005,07,04,10,57,17.70
2005,07,04,10,58,17.70
2005,07,04,10,59,17.70
2005,07,04,11,00,17.80
2005,07,04,11,01,17.80
2005,07,04,11,02,17.90
2005,07,04,11,03,17.90
2005,07,04,11,04,17.90
2005,07,04,11,05,17.80
2005,07,04,11,06,17.80
2005,07,04,11,07,17.80
2005,07,04,11,08,17.80
2005,07,04,11,09,17.80
2005,07,04,11,10,17.80
2005,07,04,11,11,17.90
2005,07,04,11,12,17.90
2005,07,04,11,13,17.90
2005,07,04,11,14,17.90
2005,07,04,11,15,17.90
2005,07,04,11,16,17.90
2005,07,04,11,17,17.90
2005,07,04,11,18,18.00
2005,07,04,11,19,18.10
2005,07,04,11,20,18.10
2005,07,04,11,21,18.10
2005,07,04,11,22,18.00
2005,07,04,11,23,17.90
2005,07,04,11,24,17.90
2005,07,04,11,25,17.90
2005,07,04,11,26,17.80
2005,07,04,11,27,17.80
2005,07,04,11,28,17.80
2005,07,04,11,29,17.80
2005,07,04,11,30,17.80
2005,07,04,11,31,17.90
2005,07,04,11,32,17.90
2005,07,04,11,33,17.90
2005,07,04,11,34,17.90
2005,07,04,11,35,17.90
2005,07,04,11,36,17.80
2005,07,04,11,37,17.80
2005,07,04,11,38,17.80
2005,07,04,11,39,17.80
2005,07,04,11,40,17.80
2005,07,04,11,41,17.90
2005,07,04,11,42,17.90
2005,07,04,11,43,17.90
2005,07,04,11,44,17.90
2005,07,04,11,45,17.90
2005,07,04,11,46,17.90
2005,07,04,11,47,17.90
2005,07,04,11,48,17.90
2005,07,04,11,49,17.90
2005,07,04,11,50,17.90
2005,07,04,11,51,17.80
2005,07,04,11,52,17.80
2005,07,04,11,53,17.70
2005,07,04,11,54,17.60
2005,07,04,11,55,17.60
2005,07,04,11,56,17.50
2005,07,04,11,57,17.50
2005,07,04,11,58,17.40
2005,07,04,11,59,17.40
2005,07,04,12,00,17.40
2005,07,04,12,01,17.50
2005,07,04,12,02,17.60
2005,07,04,12,03,17.70
2005,07,04,12,04,17.80
2005,07,04,12,05,17.90
2005,07,04,12,06,18.00
2005,07,04,12,07,18.10
2005,07,04,12,08,18.10
2005,07,04,12,09,18.20
2005,07,04,12,10,18.20
2005,07,04,12,11,18.20
2005,07,04,12,12,18.30
2005,07,04,12,13,18.40
2005,07,04,12,14,18.50
2005,07,04,12,15,18.50
2005,07,04,12,16,18.50
2005,07,04,12,17,18.50
2005,07,04,12,18,18.50
2005,07,04,12,19,18.70
2005,07,04,12,20,18.70
2005,07,04,12,21,18.80
2005,07,04,12,22,18.80
2005,07,04,12,23,18.80
2005,07,04,12,24,18.80
2005,07,04,12,25,19.00
2005,07,04,12,26,19.10
2005,07,04,12,27,19.10
2005,07,04,12,28,19.20
2005,07,04,12,29,19.10
2005,07,04,12,30,19.10
2005,07,04,12,31,19.10
2005,07,04,12,32,19.10
2005,07,04,12,33,19.20
2005,07,04,12,34,19.30
2005,07,04,12,35,19.40
2005,07,04,12,36,19.40
2005,07,04,12,37,19.40
2005,07,04,12,38,19.40
2005,07,04,12,39,19.50
2005,07,04,12,40,19.60
2005,07,04,12,41,19.70
2005,07,04,12,42,19.80
2005,07,04,12,43,19.90
2005,07,04,12,44,19.90
2005,07,04,12,45,19.90
2005,07,04,12,46,19.90
2005,07,04,12,47,19.90
2005,07,04,12,48,19.90
2005,07,04,12,49,19.70
2005,07,04,12,50,19.70
2005,07,04,12,51,19.80
2005,07,04,12,52,19.90
2005,07,04,12,53,19.90
2005,07,04,12,54,19.90
2005,07,04,12,55,19.80
2005,07,04,12,56,19.80
2005,07,04,12,57,19.80
2005,07,04,12,58,19.80
2005,07,04,12,59,19.80
2005,07,04,13,00,19.90
2005,07,04,13,01,19.90
2005,07,04,13,02,19.80
2005,07,04,13,03,19.70
2005,07,04,13,04,19.60
2005,07,04,13,05,19.50
2005,07,04,13,06,19.50
2005,07,04,13,07,19.50
2005,07,04,13,08,19.60
2005,07,04,13,09,19.70
2005,07,04,13,10,19.90
2005,07,04,13,11,19.80
2005,07,04,13,12,19.60
2005,07,04,13,13,19.60
2005,07,04,13,14,19.70
2005,07,04,13,15,19.80
2005,07,04,13,16,19.90
2005,07,04,13,17,20.00
2005,07,04,13,18,20.10
2005,07,04,13,19,20.10
2005,07,04,13,20,20.10
2005,07,04,13,21,20.10
2005,07,04,13,22,20.00
2005,07,04,13,23,19.90
2005,07,04,13,24,19.90
2005,07,04,13,25,20.00
2005,07,04,13,26,20.10
2005,07,04,13,27,20.20
2005,07,04,13,28,20.20
2005,07,04,13,29,20.30
2005,07,04,13,30,20.20
2005,07,04,13,31,20.20
2005,07,04,13,32,20.20
2005,07,04,13,33,20.10
2005,07,04,13,34,20.20
2005,07,04,13,35,20.20
2005,07,04,13,36,20.20
2005,07,04,13,37,20.30
2005,07,04,13,38,20.40
2005,07,04,13,39,20.60
2005,07,04,13,40,20.60
2005,07,04,13,41,20.50
2005,07,04,13,42,20.50
2005,07,04,13,43,20.40
2005,07,04,13,44,20.20
2005,07,04,13,45,20.20
2005,07,04,13,46,20.20
2005,07,04,13,47,20.30
2005,07,04,13,48,20.50
2005,07,04,13,49,20.60
2005,07,04,13,50,20.60
2005,07,04,13,51,20.50
2005,07,04,13,52,20.50
2005,07,04,13,53,20.50
2005,07,04,13,54,20.50
2005,07,04,13,55,20.50
2005,07,04,13,56,20.50
2005,07,04,13,57,20.50
2005,07,04,13,58,20.50
2005,07,04,13,59,20.60
2005,07,04,14,00,20.70
2005,07,04,14,01,20.80
2005,07,04,14,02,20.70
2005,07,04,14,03,20.70
2005,07,04,14,04,20.70
2005,07,04,14,05,20.70
2005,07,04,14,06,20.70
2005,07,04,14,07,20.70
2005,07,04,14,08,20.60
2005,07,04,14,09,20.70
2005,07,04,14,10,20.70
2005,07,04,14,11,20.80
2005,07,04,14,12,20.80
2005,07,04,14,13,20.80
2005,07,04,14,14,20.80
2005,07,04,14,15,20.80
2005,07,04,14,16,20.70
2005,07,04,14,17,20.70
2005,07,04,14,18,20.80
2005,07,04,14,19,20.90
2005,07,04,14,20,21.00
2005,07,04,14,21,21.10
2005,07,04,14,22,21.20
2005,07,04,14,23,21.20
2005,07,04,14,24,21.10
2005,07,04,14,25,21.10
2005,07,04,14,26,21.10
2005,07,04,14,27,21.10
2005,07,04,14,28,21.10
2005,07,04,14,29,21.10
2005,07,04,14,30,21.20
2005,07,04,14,31,21.30
2005,07,04,14,32,21.50
2005,07,04,14,33,21.60
2005,07,04,14,34,21.60
2005,07,04,14,35,21.60
2005,07,04,14,36,21.60
2005,07,04,14,37,21.60
2005,07,04,14,38,21.60
2005,07,04,14,39,21.60
2005,07,04,14,40,21.60
2005,07,04,14,41,21.80
2005,07,04,14,42,21.90
2005,07,04,14,43,22.00
2005,07,04,14,44,22.10
2005,07,04,14,45,22.10
2005,07,04,14,46,22.30
2005,07,04,14,47,22.30
2005,07,04,14,48,22.40
2005,07,04,14,49,22.30
2005,07,04,14,50,22.30
2005,07,04,14,51,22.30
2005,07,04,14,52,22.50
2005,07,04,14,53,22.50
2005,07,04,14,54,22.60
2005,07,04,14,55,22.50
2005,07,04,14,56,22.30
2005,07,04,14,57,22.30
2005,07,04,14,58,22.30
2005,07,04,14,59,22.10
2005,07,04,15,00,22.10
2005,07,04,15,01,22.00
2005,07,04,15,02,22.00
2005,07,04,15,03,22.00
2005,07,04,15,04,22.00
2005,07,04,15,05,22.00
2005,07,04,15,06,22.00
2005,07,04,15,07,22.00
2005,07,04,15,08,21.90
2005,07,04,15,09,21.80
2005,07,04,15,10,21.80
2005,07,04,15,11,21.80
2005,07,04,15,12,21.80
2005,07,04,15,13,21.80
2005,07,04,15,14,21.80
2005,07,04,15,15,21.60
2005,07,04,15,16,21.60
2005,07,04,15,17,21.50
2005,07,04,15,18,21.40
2005,07,04,15,19,21.50
2005,07,04,15,20,21.60
2005,07,04,15,21,21.60
2005,07,04,15,22,21.60
2005,07,04,15,23,21.60
2005,07,04,15,24,21.60
2005,07,04,15,25,21.60
2005,07,04,15,26,21.80
2005,07,04,15,27,21.90
2005,07,04,15,28,22.00
2005,07,04,15,29,22.00
2005,07,04,15,30,22.00
2005,07,04,15,31,22.00
2005,07,04,15,32,21.90
2005,07,04,15,33,21.90
2005,07,04,15,34,21.80
2005,07,04,15,35,21.80
2005,07,04,15,36,21.80
2005,07,04,15,37,21.80
2005,07,04,15,38,21.80
2005,07,04,15,39,21.80
2005,07,04,15,40,21.80
2005,07,04,15,41,21.80
2005,07,04,15,42,21.90
2005,07,04,15,43,21.90
2005,07,04,15,44,22.00
2005,07,04,15,45,22.00
2005,07,04,15,46,22.10
2005,07,04,15,47,22.20
2005,07,04,15,48,22.30
2005,07,04,15,49,22.30
2005,07,04,15,50,22.20
2005,07,04,15,51,22.20
2005,07,04,15,52,22.20
2005,07,04,15,53,22.10
2005,07,04,15,54,22.10
2005,07,04,15,55,22.10
2005,07,04,15,56,22.10
2005,07,04,15,57,22.20
2005,07,04,15,58,22.20
2005,07,04,15,59,22.30
2005,07,04,16,00,22.30
2005,07,04,16,01,22.50
2005,07,04,16,02,22.60
2005,07,04,16,03,22.60
2005,07,04,16,04,22.60
2005,07,04,16,05,22.60
2005,07,04,16,06,22.60
2005,07,04,16,07,22.90
2005,07,04,16,08,23.20
2005,07,04,16,09,23.30
2005,07,04,16,10,23.30
2005,07,04,16,11,23.30
2005,07,04,16,12,23.20
2005,07,04,16,13,23.10
2005,07,04,16,14,23.00
2005,07,04,16,15,22.90
2005,07,04,16,16,22.90
2005,07,04,16,17,22.90
2005,07,04,16,18,22.90
2005,07,04,16,19,22.90
2005,07,04,16,20,22.90
2005,07,04,16,21,22.90
2005,07,04,16,22,22.90
2005,07,04,16,23,22.90
2005,07,04,16,24,22.90
2005,07,04,16,25,22.80
2005,07,04,16,26,22.80
2005,07,04,16,27,22.70
2005,07,04,16,28,22.70
2005,07,04,16,29,22.60
2005,07,04,16,30,22.60
2005,07,04,16,31,22.60
2005,07,04,16,32,22.60
2005,07,04,16,33,22.60
2005,07,04,16,34,22.60
2005,07,04,16,35,22.60
2005,07,04,16,36,22.60
2005,07,04,16,37,22.70
2005,07,04,16,38,22.70
2005,07,04,16,39,22.80
2005,07,04,16,40,22.80
2005,07,04,16,41,22.80
2005,07,04,16,42,22.80
2005,07,04,16,43,22.80
2005,07,04,16,44,22.80
2005,07,04,16,45,22.70
2005,07,04,16,46,22.70
2005,07,04,16,47,22.70
2005,07,04,16,48,22.70
2005,07,04,16,49,22.60
2005,07,04,16,50,22.60
2005,07,04,16,51,22.60
2005,07,04,16,52,22.70
2005,07,04,16,53,22.80
2005,07,04,16,54,22.80
2005,07,04,16,55,22.80
2005,07,04,16,56,22.70
2005,07,04,16,57,22.70
2005,07,04,16,58,22.70
2005,07,04,16,59,22.70
2005,07,04,17,00,22.80
2005,07,04,17,01,22.80
2005,07,04,17,02,22.80
2005,07,04,17,03,22.80
2005,07,04,17,04,22.80
2005,07,04,17,05,22.80
2005,07,04,17,06,22.80
2005,07,04,17,07,22.80
2005,07,04,17,08,22.60
2005,07,04,17,09,22.60
2005,07,04,17,10,22.60
2005,07,04,17,11,22.60
2005,07,04,17,12,22.70
2005,07,04,17,13,22.70
2005,07,04,17,14,22.80
2005,07,04,17,15,22.90
2005,07,04,17,16,22.90
2005,07,04,17,17,22.90
2005,07,04,17,18,22.90
2005,07,04,17,19,22.90